This demonstration page uses our WeatherBlox Daily Observations layout. Learn more.

Left ArrowRight Arrow

44.8408, -93.29828

Hourly Observations for April 3, 2017

Temp ( °F °C ) Dew Point ( °F °C ) Humidity (%) Winds ( mph kmh ) Pressure ( in mb ) Visibility ( mi km ) Precip ( " mm )
12:53 am 00:53 Cloudy 49 9.4 45 7.2 86 86 SSW 3 6 29.77 1008 7 11 0.00 0.00
1:53 am 01:53 Cloudy with Mist and Fog 48 8.9 45 7.2 89 89 SE 5 7 29.76 1008 6 10 0.00 0.00
2:24 am 02:24 Cloudy with Mist and Fog 48 9 45 7 87 87 SSE 8 13 29.77 1008 6 10 0.00 0.00
2:53 am 02:53 Cloudy with Mist and Fog 48 8.9 45 7.2 89 89 SE 5 7 29.76 1008 4 6 0.00 0.00
3:53 am 03:53 Cloudy with Drizzle 48 8.9 45 7.2 89 89 ESE 5 7 29.72 1006 4 6 0.00 0.03
4:35 am 04:35 Cloudy with Drizzle 48 8.9 45 7.2 89 89 SE 6 9 29.74 1007 4 6 0.00 0.03
4:53 am 04:53 Cloudy with Drizzle 48 8.9 45 7.2 89 89 SE 7 11 29.72 1007 4 6 0.00 0.03
5:00 am 05:00 Cloudy with Drizzle 46 8 45 7 93 93 SE 6 9 29.74 1007 4 6 0.00 0.00
5:53 am 05:53 Cloudy with Mist and Fog 47 8.3 45 7.2 93 93 SE 5 7 29.72 1006 3 5 0.00 0.03
6:03 am 06:03 Cloudy with Mist and Fog 46 8 45 7 93 93 ESE 3 6 29.74 1007 3 4 0.00 0.00
6:26 am 06:26 Cloudy with Mist and Fog 46 8 45 7 93 93 E 7 11 29.74 1007 1 2 0.00 0.00
6:53 am 06:53 Cloudy with Mist and Fog 47 8.3 45 7.2 93 93 E 6 9 29.70 1006 1 1 0.00 0.00
7:07 am 07:07 Cloudy with Mist and Fog 47 8.3 45 7.2 93 93 ENE 6 9 29.74 1007 1 2 0.00 0.00
7:15 am 07:15 Cloudy with Mist and Fog 47 8.3 45 7.2 93 93 E 5 7 29.74 1007 2 3 0.00 0.00
7:24 am 07:24 Cloudy with Mist and Fog 46 8 45 7 93 93 E 6 9 29.74 1007 2 2 0.00 0.00
7:38 am 07:38 Cloudy with Mist and Fog 46 8 45 7 93 93 SE 8 13 29.74 1007 1 2 0.00 0.00
7:47 am 07:47 Cloudy with Mist and Fog 46 8 45 7 93 93 E 6 9 29.74 1007 1 1 0.00 0.00
7:53 am 07:53 Cloudy with Mist and Fog 47 8.3 45 7.2 93 93 ENE 6 9 29.71 1006 1 1 0.00 0.00
8:21 am 08:21 Cloudy with Mist and Fog 47 8.3 45 7.2 93 93 ENE 8 13 29.71 1006 1 2 0.00 0.00
8:51 am 08:51 Cloudy with Mist and Fog 46 8 45 7 93 93 ENE 6 9 29.71 1006 2 3 0.00 0.00
8:53 am 08:53 Cloudy with Mist and Fog 47 8.3 45 7.2 93 93 E 6 9 29.70 1006 2 3 0.00 0.00
9:11 am 09:11 Cloudy with Mist and Fog 48 8.9 45 7.2 89 89 ENE 8 13 29.71 1006 4 6 0.00 0.00
9:23 am 09:23 Cloudy with Mist and Fog 48 8.9 45 7.2 89 89 E 8 13 29.71 1006 5 8 0.00 0.00
9:41 am 09:41 Cloudy 49 9.4 45 7.2 86 86 ENE 6 9 29.68 1005 7 11 0.00 0.00
9:53 am 09:53 Cloudy 49 9.4 44 6.7 83 83 ENE 8 13 29.67 1005 7 11 0.00 0.00
10:00 am 10:00 Cloudy 50 10 44 6.7 80 80 E 9 15 29.68 1005 8 13 0.00 0.00
10:10 am 10:10 Cloudy 50 10 44 6.7 80 80 ENE 8 13 29.68 1005 8 13 0.00 0.00
10:33 am 10:33 Cloudy 50 10 44 6.7 80 80 ENE 8 13 29.68 1005 10 16 0.00 0.00
10:53 am 10:53 Cloudy 50 10 44 6.7 80 80 ENE 9 15 29.67 1005 10 16 0.00 0.00
11:22 am 11:22 Cloudy 52 11 45 7 77 77 NNE 12 19 29.65 1004 10 16 0.00 0.00
11:53 am 11:53 Cloudy 52 11.1 43 6.1 72 72 NE 12 19 29.65 1004 10 16 0.00 0.00
12:53 pm 12:53 Cloudy 50 10 43 6.1 77 77 N 13 20 29.65 1004 10 16 0.00 0.00
1:30 pm 13:30 Cloudy 52 11 45 7 77 77 NNE 13 20 29.62 1003 10 16 0.00 0.00
1:53 pm 13:53 Cloudy with Drizzle 50 10 44 6.7 80 80 NE 12 19 29.63 1004 7 11 0.00 0.03
2:43 pm 14:43 Cloudy 51 10.6 44 6.7 77 77 NE 12 19 29.62 1003 10 16 0.00 0.03
2:53 pm 14:53 Cloudy 51 10.6 44 6.7 77 77 NE 13 20 29.61 1003 10 16 0.00 0.03
3:31 pm 15:31 Cloudy with Light Rain 50 10 44 6.7 80 80 NE 9 15 29.59 1002 4 6 0.00 0.03
3:40 pm 15:40 Cloudy with Light Rain 50 10 45 7 82 82 ENE 9 15 29.59 1002 4 6 0.00 0.00
3:53 pm 15:53 Cloudy with Light Rain 50 10 45 7.2 83 83 NE 7 11 29.60 1003 4 6 0.01 0.25
4:18 pm 16:18 Cloudy with Light Rain 50 10 45 7.2 83 83 VRB 7 11 29.59 1002 4 6 0.01 0.25
4:50 pm 16:50 Cloudy with Light Rain 48 9 46 8 94 94 NNE 7 11 29.62 1003 5 8 0.00 0.00
4:53 pm 16:53 Cloudy with Light Rain 49 9.4 46 7.8 90 90 NNE 7 11 29.60 1002 5 8 0.03 0.76
5:18 pm 17:18 Cloudy with Light Rain 50 10 45 7 82 82 NE 13 20 29.59 1002 6 10 0.00 0.00
5:53 pm 17:53 Cloudy with Light Rain 50 10 45 7.2 83 83 NE 7 11 29.60 1002 10 16 0.01 0.25
6:53 pm 18:53 Cloudy 50 10 45 7.2 83 83 N 10 17 29.60 1002 10 16 0.00 0.03
7:53 pm 19:53 Cloudy with Light Rain 50 10 45 7.2 83 83 NNE 8 13 29.60 1003 10 16 0.00 0.03
8:53 pm 20:53 Cloudy with Light Rain 50 10 45 7.2 83 83 NNE 8 13 29.61 1003 9 14 0.01 0.25
9:11 pm 21:11 Cloudy with Light Rain 50 10 45 7.2 83 83 N 8 13 29.62 1003 9 14 0.00 0.03
9:53 pm 21:53 Cloudy with Light Rain 49 9.4 44 6.7 83 83 N 9 15 29.63 1004 9 14 0.02 0.51
10:53 pm 22:53 Cloudy with Light Rain 49 9.4 44 6.7 83 83 N 13 20 29.64 1004 7 11 0.03 0.76
11:53 pm 23:53 Cloudy with Light Rain 48 8.9 43 6.1 83 83 N 9 15 29.65 1004 9 14 0.01 0.25

Powered by AerisWeather